Volver al catálogo

USA 430

ActivoMilitarVLEO
NORAD 61653·PAYLOAD·🇺🇸 United States

Lanzado Oct 24, 2024 desde Vandenberg Space Force Base

Loading…

Próximos Pases (próximas 24 horas)

TLE

ObsoletoSource: Mike McCants

Época: Aug 12, 2026, 20:23 UTC

1 61653U 24192K   26224.84937067 0.00000000  00000-0  00000-0 0    02
2 61653  70.0223 124.5852 0003000 170.6993 189.3007 14.96713560    02

Sigue USA 430 en tiempo real con AllMySat

Download on the App Store